Project,Study,Ord_Occ,Event_Num,Cast_ID,Date_Time_UTC,Date_Time_PST,Lat_Dec,Lon_Dec,Sta_ID,Line,Sta,Depth,Pressure,PrQ,Temp1,Temp1Q,Temp2,Temp2Q,TempAve,Salt1,Salt1Q,Salt1_Corr,Salt2,Salt2Q,Salt2_Corr,SaltAve_Corr,Ox1,Ox1Q,Ox1_CruiseCorr,Ox1_StaCorr,Ox2,Ox2Q,Ox2_CruiseCorr,Ox2_StaCorr,OxAve_StaCorr,Ox1uM,Ox1uM_CruiseCorr,Ox1uM_StaCorr,Ox2uM,Ox2uM_CruiseCorr,Ox2uM_StaCorr,OxAveuM_StaCorr,FluorV,FluorQ,EstChl_CruiseCorr,EstChl_StaCorr,ISUSV,ISUSQ,EstNO3_CruiseCorr,EstNO3_StaCorr,SigThetaTS1,SigThetaTS1Q,SigThetaTS2,SigThetaTS2Q,BAT,XMiss,TransQ,pH,pHQ,SPAR,SPARQ,PAR,PARQ,PoT1,PoT2,DynHt,SVA,OxSat1,OxSat2,BTL_Depth,BTL_Temp,SaltB,OxB,OxBuM,Chl-a,Phaeo,NO3,NO2,NH4,PO4,SIL
CalCOFI,2105SH,027,,2105_027d,09-May-2021 22:35:15,09-May-2021 14:35:15,33.65818,-118.96829,086.7 040.0,086.7,040.0,2.000,2.014,,17.0196,,17.2018,,17.1107,33.6208,,33.6220,33.6217,,33.6236,33.6228,5.7241,,6.0524,6.0133,5.7696,,6.0356,5.9812,5.9973,249.535,263.3627,264.3648,251.532,274.6270,263.0072,263.6860,0.0517,,0.1631,0.3920,2.7297,,1.4351,,24.4516,,24.4090,,,,,,,,,,,17.0193,17.2015,-0.0042,347.067,103.732,104.925,,,,,,,,,,,,
CalCOFI,2105SH,027,,2105_027d,09-May-2021 22:36:11,09-May-2021 14:36:11,33.65818,-118.96813,086.7 040.0,086.7,040.0,3.000,3.022,,17.3144,,17.1358,,17.2251,33.6233,,33.6245,33.6218,,33.6237,33.6241,5.7272,,6.0556,6.0165,5.7971,,6.0640,6.0094,6.0130,249.691,263.5258,264.5297,252.725,274.7955,264.2542,264.3920,0.0474,,0.1312,0.3692,2.7368,,1.4351,,24.3834,,24.4247,,,,,,,,,,,17.3139,17.1354,0.0058,353.594,104.378,105.290,3,17.084,33.6225,6.088,265.40,0.673,0.202,0.40,0.029,0.00,0.26,1.76
CalCOFI,2105SH,027,,2105_027d,09-May-2021 22:36:01,09-May-2021 14:36:01,33.65818,-118.96814,086.7 040.0,086.7,040.0,4.000,4.029,,17.3454,,17.3311,,17.3383,33.6233,,33.6245,33.6273,,33.6292,33.6269,5.6910,,6.0177,5.9790,5.7439,,6.0089,5.9549,5.9670,248.114,261.8772,262.8628,250.418,273.0923,261.8428,262.3528,0.0465,,0.1245,0.3644,2.7306,,1.4351,,24.3760,,24.3826,,,,,,,,,,,17.3448,17.3304,0.0082,354.334,103.782,104.720,,,,,,,,,,,,
CalCOFI,2105SH,027,,2105_027d,09-May-2021 22:36:03,09-May-2021 14:36:03,33.65819,-118.96814,086.7 040.0,086.7,040.0,5.000,5.036,,17.5788,,17.5742,,17.5765,33.6305,,33.6317,33.6282,,33.6301,33.6309,5.6081,,5.9311,5.8930,5.6837,,5.9466,5.8931,5.8931,244.509,258.1085,259.0523,247.806,269.1989,259.1125,259.0824,0.0463,,0.1230,0.3634,2.7274,,1.4351,,24.3257,,24.3250,,,,,,,,,,,17.5780,17.5733,0.0118,359.168,102.730,104.106,,,,,,,,,,,,
CalCOFI,2105SH,027,,2105_027d,09-May-2021 22:36:06,09-May-2021 14:36:06,33.65820,-118.96814,086.7 040.0,086.7,040.0,6.000,6.043,,17.3428,,17.3496,,17.3462,33.6285,,33.6297,33.6237,,33.6256,33.6277,5.6435,,5.9681,5.9297,5.7127,,5.9766,5.9229,5.9263,246.039,259.7080,260.6695,249.059,270.8513,260.4223,260.5459,0.0445,,0.1096,0.3538,2.7252,,1.4351,,24.3808,,24.3755,,,,,,,,,,,17.3418,17.3486,0.0154,353.947,102.913,104.186,,,,,,,,,,,,
CalCOFI,2105SH,027,,2105_027d,09-May-2021 22:36:08,09-May-2021 14:36:08,33.65819,-118.96813,086.7 040.0,086.7,040.0,7.000,7.050,,17.3156,,17.3137,,17.3147,33.6261,,33.6273,33.6251,,33.6270,33.6272,5.6664,,5.9920,5.9534,5.7566,,6.0221,5.9679,5.9607,247.036,260.7502,261.7233,250.968,271.9281,262.4177,262.0705,0.0452,,0.1148,0.3575,2.7254,,1.4351,,24.3855,,24.3851,,,,,,,,,,,17.3144,17.3126,0.0190,353.536,103.275,104.914,,,,,,,,,,,,
CalCOFI,2105SH,027,,2105_027d,09-May-2021 22:36:09,09-May-2021 14:36:09,33.65818,-118.96812,086.7 040.0,086.7,040.0,8.000,8.057,,17.2120,,17.2133,,17.2127,33.6260,,33.6272,33.6188,,33.6207,33.6240,5.7437,,6.0729,6.0336,5.8179,,6.0856,6.0308,6.0322,250.399,264.2659,265.2780,253.636,275.5601,265.2064,265.2422,0.0476,,0.1327,0.3703,2.7265,,1.4351,,24.4101,,24.4042,,,,,,,,,,,17.2107,17.2120,0.0225,351.225,104.475,105.823,,,,,,,,,,,,
CalCOFI,2105SH,027,,2105_027d,09-May-2021 22:36:11,09-May-2021 14:36:11,33.65818,-118.96812,086.7 040.0,086.7,040.0,9.000,9.065,,17.0167,,17.0180,,17.0174,33.6235,,33.6247,33.6141,,33.6160,33.6204,5.8064,,6.1384,6.0987,5.8539,,6.1229,6.0677,6.0832,253.124,267.1146,268.1583,255.195,278.5031,266.8360,267.4972,0.0518,,0.1638,0.3926,2.7287,,1.4351,,24.4544,,24.4468,,,,,,,,,,,17.0152,17.0166,0.0260,347.036,105.219,106.076,,,,,,,,,,,,
CalCOFI,2105SH,027,,2105_027d,09-May-2021 22:36:12,09-May-2021 14:36:12,33.65819,-118.96812,086.7 040.0,086.7,040.0,10.000,10.072,,16.8832,,16.8774,,16.8803,33.6202,,33.6214,33.6149,,33.6168,33.6191,5.8003,,6.1321,6.0923,5.8845,,6.1546,6.0991,6.0957,252.852,266.8303,267.8708,256.522,278.2094,268.2231,268.0470,0.0554,,0.1905,0.4117,2.7324,,1.4351,,24.4832,,24.4805,,,,,,,,,,,16.8815,16.8758,0.0295,344.321,104.836,106.342,10,16.784,,,267.36,1.482,0.501,1.41,0.064,0.00,0.36,2.45
CalCOFI,2105SH,027,,2105_027d,09-May-2021 22:36:15,09-May-2021 14:36:15,33.65820,-118.96812,086.7 040.0,086.7,040.0,11.000,11.079,,16.8112,,16.8093,,16.8103,33.6182,,33.6194,33.6131,,33.6150,33.6172,5.8509,,6.1850,6.1448,5.9067,,6.1776,6.1218,6.1333,255.054,269.1323,270.1983,257.488,280.5875,269.2328,269.7156,0.0605,,0.2281,0.4388,2.7386,,1.4351,,24.4986,,24.4951,,,,,,,,,,,16.8094,16.8075,0.0330,342.883,105.602,106.603,,,,,,,,,,,,
CalCOFI,2105SH,027,,2105_027d,09-May-2021 22:36:16,09-May-2021 14:36:16,33.65818,-118.96811,086.7 040.0,086.7,040.0,12.000,12.086,,16.7512,,16.7511,,16.7512,33.6166,,33.6178,33.6132,,33.6151,33.6165,5.8292,,6.1623,6.1223,5.9111,,6.1821,6.1263,6.1243,254.105,268.1402,269.1953,257.674,279.5626,269.4272,269.3113,0.0642,,0.2553,0.4584,2.7438,,1.4351,,24.5114,,24.5089,,,,,,,,,,,16.7493,16.7491,0.0364,341.696,105.088,106.561,,,,,,,,,,,,
CalCOFI,2105SH,027,,2105_027d,09-May-2021 22:36:18,09-May-2021 14:36:18,33.65818,-118.96810,086.7 040.0,086.7,040.0,13.000,13.093,,16.6972,,16.7022,,16.6997,33.6169,,33.6181,33.6120,,33.6139,33.6160,5.8028,,6.1347,6.0949,5.9118,,6.1828,6.1271,6.1110,252.952,266.9348,267.9765,257.702,278.3174,269.4565,268.7165,0.0691,,0.2912,0.4844,2.7481,,1.4351,,24.5243,,24.5193,,,,,,,,,,,16.6950,16.7001,0.0398,340.504,104.503,106.472,,,,,,,,,,,,
CalCOFI,2105SH,027,,2105_027d,09-May-2021 22:36:20,09-May-2021 14:36:20,33.65818,-118.96810,086.7 040.0,086.7,040.0,14.000,14.101,,16.6677,,16.6637,,16.6657,33.6161,,33.6173,33.6124,,33.6143,33.6158,5.8200,,6.1527,6.1128,5.9119,,6.1829,6.1272,6.1200,253.699,267.7157,268.7661,257.703,279.1241,269.4575,269.1118,0.0706,,0.3022,0.4924,2.7515,,1.4351,,24.5306,,24.5286,,,,,,,,,,,16.6654,16.6615,0.0433,339.939,104.752,106.395,,,,,,,,,,,,
CalCOFI,2105SH,027,,2105_027d,09-May-2021 22:36:21,09-May-2021 14:36:21,33.65818,-118.96810,086.7 040.0,086.7,040.0,15.000,15.108,,16.5671,,16.5808,,16.5740,33.6170,,33.6182,33.6100,,33.6119,33.6151,5.8344,,6.1677,6.1277,5.9159,,6.1871,6.1313,6.1295,254.320,268.3649,269.4225,257.876,279.7948,269.6383,269.5304,0.0770,,0.3489,0.5264,2.7533,,1.4351,,24.5546,,24.5461,,,,,,,,,,,16.5647,16.5784,0.0467,337.679,104.807,106.295,,,,,,,,,,,,
CalCOFI,2105SH,027,,2105_027d,09-May-2021 22:36:23,09-May-2021 14:36:23,33.65818,-118.96809,086.7 040.0,086.7,040.0,16.000,16.115,,16.4505,,16.4536,,16.4521,33.6163,,33.6175,33.6082,,33.6101,33.6138,5.8361,,6.1695,6.1295,5.9136,,6.1847,6.1289,6.1292,254.386,268.4339,269.4922,257.766,279.8661,269.5233,269.5078,0.0797,,0.3686,0.5407,2.7523,,1.4351,,24.5811,,24.5741,,,,,,,,,,,16.4479,16.4510,0.0501,335.188,104.599,105.989,,,,,,,,,,,,
CalCOFI,2105SH,027,,2105_027d,09-May-2021 22:36:25,09-May-2021 14:36:25,33.65818,-118.96808,086.7 040.0,086.7,040.0,17.000,17.122,,16.2933,,16.2907,,16.2920,33.6165,,33.6177,33.6049,,33.6068,33.6123,5.7802,,6.1110,6.0715,5.8536,,6.1226,6.0674,6.0695,251.942,265.8790,266.9090,255.144,277.2266,266.7827,266.8459,0.0860,,0.4143,0.5742,2.7477,,1.4351,,24.6173,,24.6091,,,,,,,,,,,16.2906,16.2880,0.0534,331.762,103.281,104.580,,,,,,,,,,,,
CalCOFI,2105SH,027,,2105_027d,09-May-2021 22:36:27,09-May-2021 14:36:27,33.65818,-118.96808,086.7 040.0,086.7,040.0,18.000,18.130,,16.0661,,16.0736,,16.0699,33.6175,,33.6187,33.5953,,33.5972,33.6080,5.7816,,6.1125,6.0729,5.8692,,6.1387,6.0834,6.0782,251.989,265.9281,266.9586,255.814,277.2773,267.4830,267.2208,0.0882,,0.4302,0.5858,2.7415,,1.4351,,24.6700,,24.6512,,,,,,,,,,,16.0633,16.0708,0.0568,326.778,102.849,104.409,,,,,,,,,,,,
CalCOFI,2105SH,027,,2105_027d,09-May-2021 22:36:28,09-May-2021 14:36:28,33.65818,-118.96808,086.7 040.0,086.7,040.0,19.000,19.137,,15.1627,,15.1509,,15.1568,33.6195,,33.6207,33.5749,,33.5768,33.5988,5.8084,,6.1405,6.1007,5.8982,,6.1688,6.1131,6.1069,253.106,267.0958,268.1393,257.028,278.4837,268.7520,268.4457,0.1106,,0.5910,0.7048,2.7326,,1.4351,,24.8726,,24.8408,,,,,,,,,,,15.1598,15.1481,0.0600,307.490,101.500,103.017,,,,,,,,,,,,
CalCOFI,2105SH,027,,2105_027d,09-May-2021 22:36:30,09-May-2021 14:36:30,33.65818,-118.96808,086.7 040.0,086.7,040.0,20.000,20.144,,14.6424,,14.6412,,14.6418,33.6048,,33.6060,33.5765,,33.5784,33.5922,5.8532,,6.1874,6.1472,5.9203,,6.1916,6.1358,6.1415,255.036,269.1134,270.1793,257.963,280.5681,269.7292,269.9543,0.1437,,0.8241,0.8805,2.7200,,1.4351,,24.9741,,24.9525,,,,,,,,,,,14.6394,14.6383,0.0630,297.836,101.218,102.358,,,,,,,,,,,,
CalCOFI,2105SH,027,,2105_027d,09-May-2021 22:36:32,09-May-2021 14:36:32,33.65818,-118.96806,086.7 040.0,086.7,040.0,21.000,21.151,,14.3787,,14.3762,,14.3775,33.6001,,33.6013,33.5796,,33.5815,33.5914,5.8557,,6.1900,6.1498,5.8807,,6.1506,6.0952,6.1225,255.132,269.2138,270.2808,256.225,280.6718,267.9126,269.0967,0.1667,,0.9831,1.0026,2.7051,,1.4351,,25.0266,,25.0113,,,,,,,,,,,14.3756,14.3731,0.0660,292.863,100.724,101.136,,,,,,,,,,,,
CalCOFI,2105SH,027,,2105_027d,09-May-2021 22:36:34,09-May-2021 14:36:34,33.65818,-118.96806,086.7 040.0,086.7,040.0,22.000,22.159,,14.2209,,14.2191,,14.2200,33.5994,,33.6006,33.5823,,33.5842,33.5924,5.7519,,6.0814,6.0421,5.8215,,6.0893,6.0345,6.0383,250.600,264.4760,265.4905,253.637,275.7772,265.2075,265.3490,0.1915,,1.1516,1.1343,2.6882,,1.4351,,25.0593,,25.0465,,,,,,,,,,,14.2178,14.2160,0.0689,289.772,98.623,99.803,,,,,,,,,,,,
CalCOFI,2105SH,027,,2105_027d,09-May-2021 22:36:35,09-May-2021 14:36:35,33.65818,-118.96806,086.7 040.0,086.7,040.0,23.000,23.166,,14.1077,,14.1056,,14.1067,33.6001,,33.6013,33.5861,,33.5880,33.5947,5.6886,,6.0152,5.9765,5.7979,,6.0649,6.0102,5.9934,247.836,261.5866,262.5689,252.600,272.7921,264.1235,263.3462,0.2268,,1.3863,1.3217,2.6707,,1.4351,,25.0836,,25.0732,,,,,,,,,,,14.1044,14.1023,0.0718,287.487,97.315,99.172,,,,,,,,,,,,
CalCOFI,2105SH,027,,2105_027d,09-May-2021 22:36:37,09-May-2021 14:36:37,33.65818,-118.96805,086.7 040.0,086.7,040.0,24.000,24.173,,14.0575,,14.0607,,14.0591,33.6003,,33.6015,33.5897,,33.5916,33.5966,5.6810,,6.0073,5.9686,5.7725,,6.0386,5.9842,5.9764,247.502,261.2374,262.2159,251.489,272.4313,262.9622,262.5891,0.2292,,1.4021,1.3345,2.6535,,1.4351,,25.0943,,25.0854,,,,,,,,,,,14.0540,14.0572,0.0747,286.497,97.086,98.649,,,,,,,,,,,,
CalCOFI,2105SH,027,,2105_027d,09-May-2021 22:36:39,09-May-2021 14:36:39,33.65818,-118.96804,086.7 040.0,086.7,040.0,25.000,25.180,,14.0241,,14.0206,,14.0224,33.6013,,33.6025,33.5925,,33.5944,33.5985,5.6070,,5.9299,5.8918,5.7325,,5.9971,5.9432,5.9175,244.278,257.8670,258.8081,249.746,268.9494,261.1404,259.9743,0.2400,,1.4726,1.3918,2.6329,,1.4351,,25.1021,,25.0959,,,,,,,,,,,14.0206,14.0170,0.0776,285.784,95.758,97.888,,,,,,,,,,,,
CalCOFI,2105SH,027,,2105_027d,09-May-2021 22:36:41,09-May-2021 14:36:41,33.65818,-118.96803,086.7 040.0,086.7,040.0,26.000,26.188,,13.9927,,13.9914,,13.9921,33.6024,,33.6036,33.5946,,33.5965,33.6001,5.6200,,5.9435,5.9053,5.7173,,5.9814,5.9276,5.9165,244.842,258.4566,259.4043,249.080,269.5585,260.4442,259.9243,0.2651,,1.6343,1.5251,2.6160,,1.4351,,25.1095,,25.1037,,,,,,,,,,,13.9890,13.9877,0.0805,285.107,95.919,97.572,,,,,,,,,,,,
CalCOFI,2105SH,027,,2105_027d,09-May-2021 22:36:43,09-May-2021 14:36:43,33.65818,-118.96802,086.7 040.0,086.7,040.0,27.000,27.195,,13.9299,,13.9318,,13.9309,33.6026,,33.6038,33.5936,,33.5955,33.5997,5.6157,,5.9390,5.9009,5.7392,,6.0041,5.9500,5.9255,244.651,258.2570,259.2024,250.033,269.3523,261.4403,260.3214,0.2879,,1.7786,1.6462,2.6037,,1.4351,,25.1226,,25.1153,,,,,,,,,,,13.9261,13.9279,0.0833,283.882,95.724,97.827,,,,,,,,,,,,
CalCOFI,2105SH,027,,2105_027d,09-May-2021 22:36:45,09-May-2021 14:36:45,33.65818,-118.96802,086.7 040.0,086.7,040.0,28.000,28.202,,13.8634,,13.8653,,13.8644,33.5973,,33.5985,33.5891,,33.5910,33.5948,5.6501,,5.9750,5.9365,5.7584,,6.0240,5.9697,5.9531,246.149,259.8230,260.7858,250.866,270.9701,262.3110,261.5484,0.3059,,1.8907,1.7417,2.5923,,1.4351,,25.1323,,25.1256,,,,,,,,,,,13.8594,13.8613,0.0862,282.986,96.177,98.019,,,,,,,,,,,,
CalCOFI,2105SH,027,,2105_027d,09-May-2021 22:36:47,09-May-2021 14:36:47,33.65818,-118.96802,086.7 040.0,086.7,040.0,29.000,29.210,,13.8117,,13.8148,,13.8133,33.5917,,33.5929,33.5850,,33.5869,33.5899,5.6724,,5.9983,5.9597,5.7519,,6.0172,5.9631,5.9614,247.117,260.8349,261.8090,250.581,272.0155,262.0132,261.9111,0.3451,,2.1296,1.9499,2.5820,,1.4351,,25.1387,,25.1329,,,,,,,,,,,13.8076,13.8107,0.0890,282.403,96.452,97.805,,,,,,,,,,,,
CalCOFI,2105SH,027,,2105_027d,09-May-2021 22:36:48,09-May-2021 14:36:48,33.65818,-118.96801,086.7 040.0,086.7,040.0,30.000,30.217,,13.7664,,13.7681,,13.7673,33.5875,,33.5887,33.5825,,33.5844,33.5866,5.6784,,6.0046,5.9659,5.7408,,6.0057,5.9517,5.9588,247.377,261.1067,262.0838,250.095,272.2963,261.5052,261.7945,0.3561,,2.1953,2.0083,2.5726,,1.4351,,25.1448,,25.1406,,,,,,,,,,,13.7622,13.7638,0.0919,281.848,96.462,97.522,30,13.845,,,265.53,1.984,0.856,5.95,0.091,0.07,0.69,5.30
CalCOFI,2105SH,027,,2105_027d,09-May-2021 22:36:51,09-May-2021 14:36:51,33.65818,-118.96800,086.7 040.0,086.7,040.0,31.000,31.224,,13.6711,,13.6638,,13.6675,33.5828,,33.5840,33.5725,,33.5744,33.5792,5.6384,,5.9627,5.9244,5.6858,,5.9488,5.8953,5.9099,245.629,259.2794,260.2361,247.699,270.4085,259.0007,259.6184,0.3501,,2.1595,1.9764,2.5573,,1.4351,,25.1607,,25.1543,,,,,,,,,,,13.6667,13.6595,0.0947,280.359,95.594,96.379,,,,,,,,,,,,
CalCOFI,2105SH,027,,2105_027d,09-May-2021 22:36:53,09-May-2021 14:36:53,33.65818,-118.96799,086.7 040.0,086.7,040.0,32.000,32.232,,13.4845,,13.4829,,13.4837,33.5746,,33.5758,33.5656,,33.5675,33.5717,5.4489,,5.7646,5.7278,5.4071,,5.6601,5.6094,5.6686,237.368,250.6433,251.5043,235.549,261.4866,246.3008,248.9026,0.3628,,2.2350,2.0438,2.5329,,1.4351,,25.1924,,25.1858,,,,,,,,,,,13.4800,13.4784,0.0975,277.356,92.025,91.312,,,,,,,,,,,,
CalCOFI,2105SH,027,,2105_027d,09-May-2021 22:36:54,09-May-2021 14:36:54,33.65818,-118.96798,086.7 040.0,086.7,040.0,33.000,33.239,,13.3175,,13.3036,,13.3106,33.5843,,33.5855,33.5706,,33.5725,33.5790,5.2025,,5.5069,5.4723,5.1902,,5.4354,5.3870,5.4297,226.625,239.4126,240.1490,226.089,249.8841,236.4126,238.2808,0.3964,,2.4310,2.2223,2.5083,,1.4351,,25.2337,,25.2259,,,,,,,,,,,13.3130,13.2990,0.1003,273.450,87.570,87.329,,,,,,,,,,,,
CalCOFI,2105SH,027,,2105_027d,09-May-2021 22:36:56,09-May-2021 14:36:56,33.65818,-118.96798,086.7 040.0,086.7,040.0,34.000,34.246,,13.1088,,13.1096,,13.1092,33.5917,,33.5929,33.5781,,33.5800,33.5865,5.0533,,5.3508,5.3175,5.0629,,5.3036,5.2564,5.2870,220.115,232.6070,233.2679,220.536,242.8533,230.6083,231.9381,0.3847,,2.3634,2.1601,2.4793,,1.4351,,25.2812,,25.2706,,,,,,,,,,,13.1042,13.1050,0.1030,268.945,84.698,84.853,,,,,,,,,,,,
CalCOFI,2105SH,027,,2105_027d,09-May-2021 22:36:58,09-May-2021 14:36:58,33.65818,-118.96798,086.7 040.0,086.7,040.0,35.000,35.253,,12.9062,,12.8911,,12.8987,33.5941,,33.5953,33.5816,,33.5835,33.5894,4.8531,,5.1415,5.1098,4.8776,,5.1116,5.0664,5.0881,211.384,223.4796,224.0393,212.457,233.4238,222.1636,223.1015,0.3258,,2.0129,1.8474,2.4260,,1.4351,,25.3233,,25.3166,,,,,,,,,,,12.9015,12.8864,0.1057,264.958,81.005,81.383,,,,,,,,,,,,
CalCOFI,2105SH,027,,2105_027d,09-May-2021 22:37:00,09-May-2021 14:37:00,33.65818,-118.96796,086.7 040.0,086.7,040.0,36.000,36.261,,12.6398,,12.6360,,12.6379,33.5991,,33.6003,33.5807,,33.5826,33.5915,4.6445,,4.9233,4.8935,4.6961,,4.9236,4.8803,4.8869,202.291,213.9738,214.4280,204.542,223.6033,213.8904,214.1592,0.2841,,1.7547,1.6260,2.3615,,1.4351,,25.3794,,25.3659,,,,,,,,,,,12.6350,12.6312,0.1084,259.636,77.099,77.941,,,,,,,,,,,,
CalCOFI,2105SH,027,,2105_027d,09-May-2021 22:37:02,09-May-2021 14:37:02,33.65818,-118.96796,086.7 040.0,086.7,040.0,37.000,37.268,,12.3706,,12.3683,,12.3695,33.5926,,33.5938,33.5772,,33.5791,33.5865,4.5613,,4.8363,4.8072,4.6405,,4.8660,4.8232,4.8152,198.658,210.1759,210.5880,202.107,219.6797,211.3452,210.9666,0.2350,,1.4400,1.3653,2.3095,,1.4351,,25.4265,,25.4150,,,,,,,,,,,12.3657,12.3634,0.1109,255.163,75.292,76.587,,,,,,,,,,,,
CalCOFI,2105SH,027,,2105_027d,09-May-2021 22:37:04,09-May-2021 14:37:04,33.65818,-118.96796,086.7 040.0,086.7,040.0,38.000,38.276,,12.2174,,12.2156,,12.2165,33.5876,,33.5888,33.5733,,33.5752,33.5820,4.5489,,4.8233,4.7943,4.6280,,4.8531,4.8104,4.8024,198.113,209.6061,210.0119,201.559,219.0911,210.7724,210.3922,0.2059,,1.2481,1.2108,2.2580,,1.4351,,25.4519,,25.4411,,,,,,,,,,,12.2124,12.2106,0.1135,252.760,74.844,76.136,,,,,,,,,,,,
CalCOFI,2105SH,027,,2105_027d,09-May-2021 22:37:06,09-May-2021 14:37:06,33.65818,-118.96795,086.7 040.0,086.7,040.0,39.000,39.283,,12.1696,,12.1699,,12.1698,33.5809,,33.5821,33.5724,,33.5743,33.5782,4.5131,,4.7859,4.7572,4.5781,,4.8014,4.7592,4.7582,196.550,207.9722,208.3598,199.382,217.4030,208.4968,208.4283,0.1995,,1.2053,1.1768,2.2097,,1.4351,,25.4559,,25.4492,,,,,,,,,,,12.1645,12.1649,0.1160,252.405,74.177,75.242,,,,,,,,,,,,
CalCOFI,2105SH,027,,2105_027d,09-May-2021 22:37:08,09-May-2021 14:37:08,33.65818,-118.96794,086.7 040.0,086.7,040.0,40.000,40.290,,12.1457,,12.1446,,12.1452,33.5812,,33.5824,33.5739,,33.5758,33.5791,4.4150,,4.6833,4.6554,4.4659,,4.6852,4.6442,4.6498,192.279,203.5073,203.8454,194.494,212.7904,203.3876,203.6165,0.1969,,1.1879,1.1630,2.1659,,1.4351,,25.4607,,25.4552,,,,,,,,,,,12.1405,12.1395,0.1186,251.972,72.529,73.359,,,,,,,,,,,,
CalCOFI,2105SH,027,,2105_027d,09-May-2021 22:37:09,09-May-2021 14:37:09,33.65818,-118.96792,086.7 040.0,086.7,040.0,41.000,41.298,,12.0444,,12.0429,,12.0437,33.5888,,33.5900,33.5784,,33.5803,33.5852,4.3604,,4.6262,4.5988,4.4263,,4.6442,4.6036,4.6012,189.896,201.0161,201.3266,192.767,210.2167,201.5824,201.4545,0.1767,,1.0514,1.0557,2.1321,,1.4351,,25.4858,,25.4779,,,,,,,,,,,12.0391,12.0376,0.1211,249.605,71.483,72.557,,,,,,,,,,,,
CalCOFI,2105SH,027,,2105_027d,09-May-2021 22:37:11,09-May-2021 14:37:11,33.65818,-118.96792,086.7 040.0,086.7,040.0,42.000,42.305,,11.9743,,11.9733,,11.9738,33.5884,,33.5896,33.5816,,33.5835,33.5866,4.3153,,4.5790,4.5520,4.3630,,4.5786,4.5386,4.5453,187.930,198.9608,199.2485,190.009,208.0934,198.6996,198.9741,0.1485,,0.8575,0.9060,2.0968,,1.4351,,25.4987,,25.4936,,,,,,,,,,,11.9689,11.9679,0.1236,248.395,70.640,71.417,,,,,,,,,,,,
CalCOFI,2105SH,027,,2105_027d,09-May-2021 22:37:14,09-May-2021 14:37:14,33.65819,-118.96792,086.7 040.0,086.7,040.0,43.000,43.312,,11.9111,,11.9096,,11.9104,33.5933,,33.5945,33.5871,,33.5890,33.5918,4.2310,,4.4909,4.4645,4.2945,,4.5076,4.4684,4.4665,184.255,195.1190,195.3640,187.021,204.1244,195.5764,195.4702,0.1276,,0.7114,0.7950,2.0578,,1.4351,,25.5144,,25.5099,,,,,,,,,,,11.9055,11.9041,0.1261,246.928,69.170,70.203,,,,,,,,,,,,
CalCOFI,2105SH,027,,2105_027d,09-May-2021 22:37:16,09-May-2021 14:37:16,33.65819,-118.96790,086.7 040.0,086.7,040.0,44.000,44.320,,11.8808,,11.8803,,11.8806,33.5946,,33.5958,33.5887,,33.5906,33.5932,4.2119,,4.4709,4.4447,4.2704,,4.4827,4.4437,4.4442,183.420,194.2461,194.4814,185.973,203.2226,194.4809,194.4812,0.1214,,0.6676,0.7621,2.0387,,1.4351,,25.5211,,25.5166,,,,,,,,,,,11.8752,11.8747,0.1286,246.307,68.814,69.768,,,,,,,,,,,,
CalCOFI,2105SH,027,,2105_027d,09-May-2021 22:37:17,09-May-2021 14:37:17,33.65818,-118.96790,086.7 040.0,086.7,040.0,45.000,45.327,,11.8596,,11.8594,,11.8595,33.5934,,33.5946,33.5887,,33.5906,33.5926,4.1611,,4.4178,4.3920,4.2172,,4.4276,4.3891,4.3906,181.209,191.9347,192.1444,183.652,200.8347,192.0549,192.0997,0.1257,,0.6980,0.7849,2.0207,,1.4351,,25.5241,,25.5205,,,,,,,,,,,11.8539,11.8536,0.1311,246.043,67.954,68.867,,,,,,,,,,,,
CalCOFI,2105SH,027,,2105_027d,09-May-2021 22:37:19,09-May-2021 14:37:19,33.65819,-118.96790,086.7 040.0,086.7,040.0,46.000,46.334,,11.8015,,11.8011,,11.8013,33.5948,,33.5960,33.5887,,33.5906,33.5933,4.0565,,4.3084,4.2835,4.0832,,4.2888,4.2517,4.2676,176.653,187.1718,187.3288,177.816,195.9142,185.9547,186.6418,0.1119,,0.6002,0.7117,1.9938,,1.4351,,25.5361,,25.5315,,,,,,,,,,,11.7957,11.7952,0.1336,244.931,66.166,66.598,,,,,,,,,,,,
CalCOFI,2105SH,027,,2105_027d,09-May-2021 22:37:21,09-May-2021 14:37:21,33.65820,-118.96788,086.7 040.0,086.7,040.0,47.000,47.342,,11.6661,,11.6644,,11.6653,33.5923,,33.5935,33.5817,,33.5836,33.5886,3.9392,,4.1857,4.1619,3.9851,,4.1872,4.1511,4.1565,171.540,181.8267,181.9243,173.539,190.3922,181.4842,181.7043,0.1052,,0.5524,0.6761,1.9658,,1.4351,,25.5593,,25.5514,,,,,,,,,,,11.6602,11.6585,0.1360,242.731,64.068,64.807,,,,,,,,,,,,
CalCOFI,2105SH,027,,2105_027d,09-May-2021 22:37:23,09-May-2021 14:37:23,33.65820,-118.96788,086.7 040.0,086.7,040.0,48.000,48.349,,11.5546,,11.5543,,11.5545,33.5987,,33.5999,33.5914,,33.5933,33.5966,3.9043,,4.1492,4.1257,3.9654,,4.1668,4.1309,4.1283,170.016,180.2335,180.3135,172.677,188.7463,180.5831,180.4483,0.1060,,0.5582,0.6804,1.9448,,1.4351,,25.5849,,25.5793,,,,,,,,,,,11.5486,11.5483,0.1384,240.318,63.353,64.341,,,,,,,,,,,,
CalCOFI,2105SH,027,,2105_027d,09-May-2021 22:37:25,09-May-2021 14:37:25,33.65820,-118.96788,086.7 040.0,086.7,040.0,49.000,49.357,,11.5003,,11.5002,,11.5003,33.6057,,33.6069,33.6007,,33.6026,33.6048,3.8615,,4.1045,4.0813,3.9364,,4.1367,4.1011,4.0912,168.150,178.2828,178.3411,171.411,186.7310,179.2598,178.8005,0.0986,,0.5051,0.6411,1.9208,,1.4351,,25.6003,,25.5965,,,,,,,,,,,11.4941,11.4941,0.1409,238.868,62.589,63.801,,,,,,,,,,,,
CalCOFI,2105SH,027,,2105_027d,09-May-2021 22:37:27,09-May-2021 14:37:27,33.65820,-118.96786,086.7 040.0,086.7,040.0,50.000,50.364,,11.4737,,11.4738,,11.4738,33.6097,,33.6109,33.6049,,33.6068,33.6089,3.8336,,4.0753,4.0523,3.8888,,4.0874,4.0523,4.0523,166.934,177.0116,177.0558,169.340,185.4177,177.0951,177.0755,0.1062,,0.5596,0.6814,1.8983,,1.4351,,25.6083,,25.6046,,,,,,,,,,,11.4675,11.4675,0.1433,238.129,62.104,62.997,,,,,,,,,,,,
CalCOFI,2105SH,027,,2105_027d,09-May-2021 22:37:29,09-May-2021 14:37:29,33.65820,-118.96786,086.7 040.0,086.7,040.0,51.000,51.371,,11.4077,,11.4081,,11.4079,33.6204,,33.6216,33.6153,,33.6172,33.6194,3.8040,,4.0443,4.0216,3.8600,,4.0576,4.0228,4.0222,165.642,175.6609,175.6902,168.081,184.0223,175.7791,175.7347,0.0946,,0.4764,0.6198,1.8741,,1.4351,,25.6288,,25.6248,,,,,,,,,,,11.4014,11.4018,0.1456,236.206,61.542,62.447,51,11.472,,,177.79,0.437,0.419,16.20,0.053,0.00,1.35,14.70
CalCOFI,2105SH,027,,2105_027d,09-May-2021 22:37:31,09-May-2021 14:37:31,33.65820,-118.96786,086.7 040.0,086.7,040.0,52.000,52.379,,11.3744,,11.3744,,11.3744,33.6234,,33.6246,33.6186,,33.6205,33.6226,3.7158,,3.9521,3.9301,3.7315,,3.9245,3.8910,3.9106,161.802,171.6466,171.6313,162.483,179.8751,169.9278,170.7796,0.0925,,0.4613,0.6087,1.8441,,1.4351,,25.6372,,25.6335,,,,,,,,,,,11.3679,11.3679,0.1480,235.426,60.075,60.326,,,,,,,,,,,,
CalCOFI,2105SH,027,,2105_027d,09-May-2021 22:37:33,09-May-2021 14:37:33,33.65820,-118.96784,086.7 040.0,086.7,040.0,53.000,53.386,,11.2998,,11.2994,,11.2996,33.6289,,33.6301,33.6218,,33.6237,33.6269,3.5666,,3.7961,3.7754,3.5797,,3.7673,3.7353,3.7554,155.301,164.8505,164.7598,155.872,172.8540,163.0175,163.8887,0.0942,,0.4735,0.6177,1.8221,,1.4351,,25.6551,,25.6496,,,,,,,,,,,11.2932,11.2929,0.1504,233.748,57.573,57.781,,,,,,,,,,,,
CalCOFI,2105SH,027,,2105_027d,09-May-2021 22:37:34,09-May-2021 14:37:34,33.65820,-118.96784,086.7 040.0,086.7,040.0,54.000,54.394,,11.1555,,11.1545,,11.1550,33.6394,,33.6406,33.6290,,33.6309,33.6358,3.4923,,3.7183,3.6983,3.5374,,3.7234,3.6919,3.6951,152.061,161.4634,161.3351,154.025,169.3548,161.0869,161.2110,0.0902,,0.4447,0.5965,1.8054,,1.4351,,25.6894,,25.6814,,,,,,,,,,,11.1488,11.1479,0.1527,230.495,56.205,56.925,,,,,,,,,,,,